Location: Lombard
(41.8800°N, 88.0078°W)
Time: 01:21:11
(UTC-06:00)

BlueWalker 3 - Pass Details

Date: 30 January 2026
Orbit: 450 x 461 km, 53.2° (Epoch: 11 February)

Event Time Altitude Azimuth Distance (km) Brightness Sun altitude
Rises 18:45:23 0° 306° (NW) 2,458 6.2 -18.9°
Reaches altitude 10° 18:48:22 10° 334° (NNW) 1,584 4.7 -19.4°
Enters shadow 18:50:02 14° 1° (N) 1,369 4.1 -19.7°
